Home   Weather   Rodez   Past weeks

Flag for France Past Weather in Rodez, Midi-Pyrénées, France — Yesterday and Last 2 Weeks

Now
37 °F

Light rain. Passing clouds.


Feels Like: 31 °F
Forecast: 38 / 46 °F
Wind: 9 mph from Southeast

Location: Rodez Airport

Current Time: Apr 30, 2017 at 11:11:18 pm

Latest Report: Apr 30, 2017 at 10:30 pm


Visibility: N/A

Pressure: 29.86 "Hg (27.58 "Hg at 642m altitude)

Humidity: 100%

Dew Point: 37 °F

Location of RodezLocation

Past Weather in Rodez — Graph

°F

Rodez Temperature Yesterday

Maximum temperature yesterday: 63 °F (at 3:30 pm)
Minimum temperature yesterday: 25 °F (at 6:00 am)
Average temperature yesterday: 45 °F

High & Low Weather Summary for the Past Weeks

 TemperatureHumidityPressure
High72 °F (Apr 22, 4:30 pm)100% (Apr 16, 3:30 am)30.36 "Hg (Apr 16, 3:30 am)
Low25 °F (Apr 29, 6:00 am)15% (Apr 20, 5:30 pm)29.59 "Hg (Apr 30, 5:00 pm)
Average48 °F62%30.07 "Hg
* Reported Apr 15 9:00 pm — Apr 30 9:30 pm, Rodez, Weather by CustomWeather, © 2017

Note: Actual official high and low records may vary slightly from our data, if they occured in-between our weather recording intervals... More about our weather records

Advertising

Rodez Weather History for the Previous 24 Hours

Scroll right to see more
 ConditionsComfort  
Time TempWeatherWind HumidityBarometerVisibility
9:30 pm
Sun, Apr 30
37 °FLight rain. Mostly cloudy.2 mph100%29.86 "HgN/A
9:00 pm37 °FLight rain. Overcast.6 mph100%29.86 "Hg6 mi
8:30 pm37 °FLight rain. Fog.15 mph100%29.86 "Hg3 mi
8:00 pm39 °FRain. Fog.16 mph100%29.83 "Hg3 mi
7:30 pm41 °FLight rain. Low clouds.20 mph100%29.80 "Hg4 mi
7:00 pm43 °FThundershowers. Mostly cloudy.20 mph100%29.77 "Hg5 mi
6:30 pm45 °FThunderstorms. Fog.25 mph93%29.74 "Hg3 mi
6:00 pm55 °FThundershowers. Mostly cloudy.23 mph77%29.68 "HgN/A
5:30 pm55 °FMostly cloudy.26 mph72%29.62 "HgN/A
5:00 pm57 °FCloudy.30 mph67%29.59 "HgN/A
4:30 pm59 °FOvercast.30 mph63%29.62 "HgN/A
4:00 pm59 °FPartly sunny.31 mph63%29.62 "HgN/A
3:30 pm63 °FPartly sunny.29 mph56%29.65 "HgN/A
3:00 pm63 °FPartly sunny.28 mph59%29.65 "HgN/A
2:00 pm61 °FPartly sunny.29 mph63%29.68 "HgN/A
1:30 pm61 °FPartly sunny.28 mph59%29.68 "HgN/A
1:00 pm59 °FPartly sunny.28 mph63%29.68 "HgN/A
12:30 pm57 °FPartly sunny.28 mph63%29.71 "HgN/A
12:00 pm55 °FOvercast.28 mph67%29.71 "HgN/A
11:30 am55 °FOvercast.24 mph67%29.74 "HgN/A
11:00 am54 °FOvercast.23 mph72%29.74 "HgN/A
10:30 am55 °FMostly cloudy.25 mph67%29.74 "HgN/A
10:00 am54 °FOvercast.28 mph72%29.74 "HgN/A
9:30 am52 °FPartly sunny.26 mph77%29.74 "HgN/A
9:00 am52 °FOvercast.23 mph77%29.77 "HgN/A
8:30 am50 °FOvercast.20 mph76%29.77 "HgN/A
8:00 am50 °FPartly sunny.21 mph76%29.77 "HgN/A
7:30 am48 °FPartly sunny.20 mph82%29.77 "HgN/A
7:00 am48 °FPartly sunny.17 mph76%29.77 "HgN/A
6:30 am48 °FClear.16 mph71%29.77 "Hg10 mi
6:00 am46 °FClear.20 mph76%29.80 "Hg10 mi
5:30 am46 °FClear.17 mph76%29.80 "Hg10 mi
5:00 am46 °FClear.17 mph76%29.80 "Hg10 mi
4:30 am46 °FClear.16 mph76%29.80 "Hg10 mi
4:00 am46 °FClear.16 mph76%29.80 "Hg10 mi
3:30 am46 °FClear.17 mph76%29.80 "Hg10 mi
3:00 am46 °FClear.18 mph71%29.80 "Hg10 mi
2:30 am46 °FClear.17 mph66%29.83 "Hg10 mi
2:00 am46 °FClear.18 mph62%29.83 "Hg10 mi
1:30 am48 °FClear.14 mph54%29.83 "Hg10 mi
1:00 am48 °FClear.12 mph50%29.83 "Hg10 mi
12:30 am46 °FClear.10 mph50%29.83 "Hg10 mi
12:00 am46 °FClear.9 mph50%29.86 "Hg10 mi
11:30 pm
Sat, Apr 29
46 °FClear.10 mph46%29.86 "Hg10 mi
11:00 pm46 °FClear.9 mph40%29.86 "Hg10 mi
Weather by CustomWeather, © 2017

See weather overviewHow to use our weather pages